Content
SEND FEEDBACK

Daily
Averages
Monthly
Summary
Brazil

JOAO PESSOA, PARAÍBA


Home > South America > Brazil > Paraíba
Elevation: 92 feet     Latitude: 07 06S     Longitude: 034 53W

WEATHER
 
SELECT A DAY
Number of Records: 62,304;   Date Range: 8/27/96 - 7/23/14
 
SHARE

PRINT THIS DATA

[ ← Previous Day ]
WEATHER ALMANAC - FEBRUARY 13, 2013
[ Next Day → ]
[ °C ]   °F
Weather ElementAverageHighLow
Temperature82.5 °F89.6 °F (10:00 am)75.2 °F (5:00 am)
Dewpoint68.9 °F71.6 °F (1:00 am)64.4 °F (11:00 am)
Humidity65.1 %83 % (1:00 am)43 % (11:00 am)
Barometer29.87 in29.92 in (10:00 pm)29.83 in (3:00 am)
Wind Speed11.5 mph18.4 mph (6:00 pm)
Weather ElementAverage
Visibility6.1 mi
Wind DirectionSE (140 °)

Weather ElementTotal
Precipitation---
Cooling Degree Days17.4 (Base 65)
Growing Degree Days32.4 (Base 50)
Averaged from 23 records on February 13, 2013
WEATHER CONDITIONS BREAKOUT
WIND DIRECTION BREAKOUT
WEATHER BY HOUR - FEBRUARY 13, 2013
[ °C ]   °F
Local TimeTemperatureDewpointHumidityBarometerVisibilityWind DirectionWind SpeedGust SpeedPrecipitationEventsConditions
1:00 AM77.0 °F71.6 °F83 %29.86 in6.2 miSSW (200°)4.6 mphScattered Clouds
2:00 AM77.0 °F71.6 °F83 %29.86 in6.2 miSouth (190°)2.3 mphScattered Clouds
3:00 AM77.0 °F69.8 °F78 %29.83 in6.2 miSouth (180°)4.6 mphScattered Clouds
4:00 AM77.0 °F69.8 °F78 %29.86 in6.2 miCalmScattered Clouds
5:00 AM75.2 °F69.8 °F83 %29.86 in6.2 miSSW (210°)5.8 mphScattered Clouds
6:00 AM75.2 °F69.8 °F83 %29.89 in6.2 miSSW (200°)3.5 mphScattered Clouds
7:00 AM77.0 °F71.6 °F83 %29.89 in6.2 miSouth (190°)5.8 mphScattered Clouds
8:00 AM82.4 °F69.8 °F66 %29.89 in6.2 miSSE (160°)8.1 mphScattered Clouds
9:00 AM86.0 °F68.0 °F55 %29.89 in6.2 miSSE (160°)12.7 mphMostly Cloudy
10:00 AM89.6 °F66.2 °F46 %29.89 in6.2 miESE (120°)13.8 mphMostly Cloudy
11:00 AM89.6 °F64.4 °F43 %29.89 in6.2 miSE (130°)13.8 mphMostly Cloudy
12:00 PM89.6 °F66.2 °F46 %29.89 in6.2 miSE (130°)16.1 mphScattered Clouds
1:00 PM87.8 °F68.0 °F52 %29.86 in6.2 miESE (120°)15.0 mphScattered Clouds
2:00 PM89.6 °F66.2 °F46 %29.83 in6.2 miESE (110°)17.3 mphPartly Cloudy
3:00 PM87.8 °F66.2 °F49 %29.83 in6.2 miESE (120°)17.3 mphScattered Clouds
4:00 PM86.0 °F68.0 °F55 %29.83 in6.2 miSE (130°)17.3 mphScattered Clouds
5:00 PM84.2 °F69.8 °F62 %29.83 in6.2 miSE (130°)17.3 mphPartly Cloudy
6:00 PM82.4 °F69.8 °F66 %29.86 in6.2 miSE (140°)18.4 mphPartly Cloudy
7:00 PM80.6 °F71.6 °F74 %29.86 in6.2 miESE (110°)13.8 mphScattered Clouds
8:00 PM82.4 °F71.6 °F70 %29.89 in6.2 miESE (110°)12.7 mphMostly Cloudy
9:00 PM82.4 °F69.8 °F66 %29.89 in6.2 miESE (110°)16.1 mphMostly Cloudy
10:00 PM82.4 °F68.0 °F62 %29.92 in6.2 miESE (120°)11.5 mphMostly Cloudy
11:00 PM78.8 °F68.0 °F69 %29.92 in5.0 miSSE (150°)16.1 mphRainLight Rain
Hourly data recorded from SBJP, located miles away from Joao Pessoa, Paraíba







STORIES FROM OUR PARTNERS